Flag for USA

Past Weather in Arlington, Texas, USA — Yesterday and Last 2 Weeks

Now
71 °F

Fog.


Feels Like: 69 °F
Forecast: 72 / 67 °F
Wind: N/A

Location: Arlington Municipal Airport
Current Time: Sep 22, 2020 at 10:35:31 am
Latest Report: Sep 22, 2020 at 10:04 am
Visibility: 4 mi
Pressure30.07 "Hg
Humidity: 87%
Dew Point: 67 °F
Location of ArlingtonLocation

Past Weather in Arlington — Graph

°F

Arlington Temperature Yesterday

Maximum temperature yesterday: 77 °F (at 12:53 am)
Minimum temperature yesterday: 69 °F (at 8:32 pm)
Average temperature yesterday: 73 °F

High & Low Weather Summary for the Past Weeks

 TemperatureHumidityPressure
High95 °F (Sep 7, 3:53 pm)91% (Sep 9, 5:03 pm)30.27 "Hg (Sep 9, 5:03 pm)
Low57 °F (Sep 10, 3:22 am)37% (Sep 19, 3:53 pm)29.73 "Hg (Sep 7, 7:53 pm)
Average77 °F69%30.03 "Hg
* Reported Sep 7 8:53 am — Sep 22 8:53 am, Arlington. Weather by CustomWeather, © 2020

Note: Actual official high and low records may vary slightly from our data, if they occured in-between our weather recording intervals... More about our weather records

Arlington Weather History for the Previous 24 Hours

Scroll right to see more
 ConditionsComfort  
Time TempWeatherWind HumidityBarometerVisibility
8:53 am
Tue, Sep 22
70 °FFog.13 mph87%30.03 "Hg6 mi
7:53 am69 °FLow clouds.9 mph90%30.03 "Hg3 mi
7:29 am69 °FFog.N/A90%30.05 "Hg2 mi
6:56 am69 °FLight rain. Fog.12 mph90%30.04 "Hg3 mi
5:53 am69 °FLight rain. Mostly cloudy.N/A90%30.02 "Hg7 mi
4:53 am69 °FLight rain. Low clouds.N/A90%30.02 "Hg7 mi
3:53 am69 °FLight rain. Fog.N/A90%30.02 "Hg6 mi
2:53 am69 °FFog.N/A90%30.03 "Hg5 mi
1:53 am69 °FLow clouds.N/A87%30.04 "Hg10 mi
12:53 am69 °FLow clouds.N/A87%30.05 "Hg10 mi
11:53 pm
Mon, Sep 21
69 °FLow clouds.N/A87%30.06 "Hg10 mi
10:53 pm69 °FLow clouds.N/A87%30.06 "Hg10 mi
10:05 pm69 °FMostly cloudy.N/A87%30.08 "Hg10 mi
9:53 pm69 °FOvercast.N/A87%30.06 "Hg10 mi
9:40 pm69 °FOvercast.N/A87%30.08 "Hg10 mi
8:53 pm69 °FLow clouds.N/A90%30.05 "Hg10 mi
8:32 pm69 °FOvercast.N/A87%30.07 "Hg10 mi
7:53 pm70 °FMostly cloudy.N/A87%30.05 "Hg10 mi
6:53 pm70 °FRain. Fog.N/A87%30.05 "Hg5 mi
6:38 pm70 °FRain. Fog.N/A87%30.07 "Hg5 mi
5:53 pm71 °FLight rain. Cloudy.N/A84%30.05 "Hg10 mi
5:40 pm72 °FCloudy.12 mph81%30.07 "Hg10 mi
5:22 pm72 °FLight rain. Mostly cloudy.14 mph84%30.06 "Hg10 mi
4:10 pm72 °FLow clouds.9 mph84%30.07 "Hg5 mi
3:53 pm73 °FOvercast.14 mph79%30.05 "Hg10 mi
2:53 pm76 °FOvercast.13 mph74%30.05 "Hg10 mi
1:53 pm76 °FOvercast.13 mph72%30.06 "Hg10 mi
12:53 pm76 °FMostly cloudy.14 mph69%30.09 "Hg10 mi
12:33 pm76 °FMostly cloudy.13 mph67%30.12 "Hg10 mi
11:53 am75 °FOvercast.10 mph69%30.11 "Hg10 mi
11:39 am74 °FMore clouds than sun.10 mph71%30.14 "Hg10 mi
10:53 am74 °FLight rain. Overcast.13 mph69%30.11 "Hg10 mi
Weather by CustomWeather, © 2020

See weather overview